Time,TemperatureF,DewpointF,PressureIn,WindDirection,WindDirectionDegrees,WindSpeedMPH,WindSpeedGustMPH,Humidity,HourlyPrecipIn,Conditions,Clouds,dailyrainin,SoftwareType,DateUTC
2013-02-21 00:00:00,39.7,32.8,29.97,NW,315,0.0,0.0,76,0.00,,CLR,0.00,VWS V13.01,2013-02-21 08:00:00,
2013-02-21 00:15:00,39.7,33.1,29.98,NW,315,0.0,4.0,77,0.00,,CLR,0.00,VWS V13.01,2013-02-21 08:15:00,
2013-02-21 00:30:00,39.7,33.1,29.97,NW,315,0.0,5.0,77,0.00,,CLR,0.00,VWS V13.01,2013-02-21 08:30:00,
2013-02-21 00:45:00,39.2,32.6,29.97,NW,315,0.0,0.0,77,0.00,,CLR,0.00,VWS V13.01,2013-02-21 08:45:00,
2013-02-21 01:00:00,37.8,32.2,29.98,East,90,1.0,7.0,80,0.00,,CLR,0.00,VWS V13.01,2013-02-21 09:00:00,
2013-02-21 01:15:00,37.5,32.5,29.98,ESE,112,1.0,5.0,82,0.00,,CLR,0.00,VWS V13.01,2013-02-21 09:15:00,
2013-02-21 01:30:00,38.1,33.1,29.99,ESE,112,0.0,5.0,82,0.00,,CLR,0.00,VWS V13.01,2013-02-21 09:30:00,
2013-02-21 01:45:00,38.0,32.7,29.99,ESE,112,0.0,0.0,81,0.00,,CLR,0.00,VWS V13.01,2013-02-21 09:45:00,
2013-02-21 02:00:00,37.5,32.5,29.99,ESE,112,0.0,4.0,82,0.00,,CLR,0.00,VWS V13.01,2013-02-21 10:00:00,
2013-02-21 02:15:00,37.0,32.3,29.98,ESE,112,0.0,0.0,83,0.00,,CLR,0.00,VWS V13.01,2013-02-21 10:15:00,
2013-02-21 02:30:00,36.8,32.4,29.99,ESE,112,0.0,0.0,84,0.00,,CLR,0.00,VWS V13.01,2013-02-21 10:30:00,
2013-02-21 02:45:00,36.7,32.6,29.99,ESE,112,0.0,0.0,85,0.00,,CLR,0.00,VWS V13.01,2013-02-21 10:45:00,
2013-02-21 03:00:00,36.7,32.3,30.00,ESE,112,0.0,0.0,84,0.00,,CLR,0.00,VWS V13.01,2013-02-21 11:00:00,
2013-02-21 03:15:00,36.3,31.9,30.00,ESE,112,0.0,0.0,84,0.00,,CLR,0.00,VWS V13.01,2013-02-21 11:15:00,
2013-02-21 03:30:00,35.6,31.2,30.00,ESE,112,0.0,0.0,84,0.00,,CLR,0.00,VWS V13.01,2013-02-21 11:30:00,
2013-02-21 03:45:00,35.5,31.7,30.00,ESE,112,0.0,4.0,86,0.00,,CLR,0.00,VWS V13.01,2013-02-21 11:45:00,
2013-02-21 04:00:00,35.7,32.2,30.00,ESE,112,1.0,7.0,87,0.00,,CLR,0.00,VWS V13.01,2013-02-21 12:00:00,
2013-02-21 04:15:00,35.9,32.4,30.02,East,90,0.0,5.0,87,0.00,,CLR,0.00,VWS V13.01,2013-02-21 12:15:00,
2013-02-21 04:30:00,36.2,32.7,30.02,East,90,0.0,0.0,87,0.00,,CLR,0.00,VWS V13.01,2013-02-21 12:30:00,
2013-02-21 04:45:00,36.3,32.8,30.03,ENE,68,1.0,6.0,87,0.00,,CLR,0.00,VWS V13.01,2013-02-21 12:45:00,
2013-02-21 05:00:00,36.5,32.7,30.03,NNE,22,1.0,4.0,86,0.00,,CLR,0.00,VWS V13.01,2013-02-21 13:00:00,
2013-02-21 05:15:00,36.8,33.0,30.02,NNE,22,1.0,5.0,86,0.00,,CLR,0.00,VWS V13.01,2013-02-21 13:15:00,
2013-02-21 05:30:00,36.9,32.8,30.02,NNE,22,0.0,1.0,85,0.00,,CLR,0.00,VWS V13.01,2013-02-21 13:30:00,
2013-02-21 05:45:00,36.8,32.4,30.02,NNE,22,0.0,0.0,84,0.00,,CLR,0.00,VWS V13.01,2013-02-21 13:45:00,
2013-02-21 06:00:00,36.9,32.2,30.02,NNE,22,2.0,9.0,83,0.00,,CLR,0.00,VWS V13.01,2013-02-21 14:00:00,
2013-02-21 06:15:00,37.4,32.1,30.03,NW,315,6.0,13.0,81,0.00,,CLR,0.00,VWS V13.01,2013-02-21 14:15:00,
2013-02-21 06:30:00,37.8,31.9,30.04,North,0,5.0,14.0,79,0.00,,CLR,0.00,VWS V13.01,2013-02-21 14:30:00,
2013-02-21 06:45:00,38.3,32.4,30.05,North,0,8.0,14.0,79,0.00,,CLR,0.00,VWS V13.01,2013-02-21 14:45:00,
2013-02-21 07:00:00,37.9,32.0,30.05,NNW,338,9.0,16.0,79,0.00,,CLR,0.00,VWS V13.01,2013-02-21 15:00:00,
2013-02-21 07:15:00,37.6,32.3,30.06,NNW,338,10.0,16.0,81,0.00,,CLR,0.00,VWS V13.01,2013-02-21 15:15:00,
2013-02-21 07:30:00,38.0,33.3,30.06,NNW,338,8.0,13.0,83,0.00,,CLR,0.00,VWS V13.01,2013-02-21 15:30:00,
2013-02-21 07:45:00,39.8,35.4,30.07,North,0,8.0,17.0,84,0.00,,CLR,0.00,VWS V13.01,2013-02-21 15:45:00,
2013-02-21 08:01:00,41.0,36.2,30.08,North,9,4.0,9.0,83,0.00,,CLR,0.00,VWS V13.01,2013-02-21 16:01:00,
2013-02-21 08:07:00,41.6,36.2,30.08,NNW,336,9.0,12.0,81,0.00,,CLR,0.00,VWS V13.01,2013-02-21 16:07:00,
2013-02-21 08:13:00,42.3,36.9,30.08,NNW,346,8.0,18.0,81,0.00,,CLR,0.00,VWS V13.01,2013-02-21 16:13:00,
2013-02-21 08:19:00,42.9,37.2,30.09,NNW,341,9.0,18.0,80,0.00,,CLR,0.00,VWS V13.01,2013-02-21 16:19:00,
2013-02-21 08:25:00,43.5,37.4,30.09,North,5,8.0,14.0,79,0.00,,CLR,0.00,VWS V13.01,2013-02-21 16:25:00,
2013-02-21 08:31:00,44.2,38.1,30.09,NNE,14,6.0,14.0,79,0.00,,CLR,0.00,VWS V13.01,2013-02-21 16:31:00,
2013-02-21 08:37:00,44.9,37.8,30.09,NNW,348,4.0,14.0,76,0.00,,CLR,0.00,VWS V13.01,2013-02-21 16:37:00,
2013-02-21 08:43:00,45.3,38.2,30.10,NNW,348,7.0,15.0,76,0.00,,CLR,0.00,VWS V13.01,2013-02-21 16:43:00,
2013-02-21 08:50:00,45.6,38.2,30.10,NNW,333,9.0,17.0,75,0.00,,CLR,0.00,VWS V13.01,2013-02-21 16:50:00,
2013-02-21 08:56:00,45.9,38.4,30.11,NNW,342,11.0,19.0,75,0.00,,CLR,0.00,VWS V13.01,2013-02-21 16:56:00,
2013-02-21 09:02:00,46.3,38.8,30.10,NNW,344,7.0,19.0,75,0.00,,CLR,0.00,VWS V13.01,2013-02-21 17:02:00,
2013-02-21 09:08:00,46.9,39.1,30.10,NNW,346,7.0,15.0,74,0.00,,CLR,0.00,VWS V13.01,2013-02-21 17:08:00,
2013-02-21 09:14:00,47.5,39.3,30.11,NNW,346,11.0,16.0,73,0.00,,CLR,0.00,VWS V13.01,2013-02-21 17:14:00,
2013-02-21 09:20:00,48.0,40.1,30.11,NNW,336,12.0,16.0,74,0.00,,CLR,0.00,VWS V13.01,2013-02-21 17:20:00,
2013-02-21 09:26:00,48.7,39.7,30.11,NNW,333,15.0,16.0,71,0.00,,CLR,0.00,VWS V13.01,2013-02-21 17:26:00,
2013-02-21 09:32:00,49.1,40.1,30.11,NNW,332,14.0,19.0,71,0.00,,CLR,0.00,VWS V13.01,2013-02-21 17:32:00,
2013-02-21 09:38:00,49.5,40.5,30.12,NNW,336,12.0,14.0,71,0.00,,CLR,0.00,VWS V13.01,2013-02-21 17:38:00,
2013-02-21 09:44:00,50.0,40.2,30.11,North,5,10.0,15.0,69,0.00,,CLR,0.00,VWS V13.01,2013-02-21 17:44:00,
2013-02-21 09:50:00,50.5,40.3,30.11,NNW,348,8.0,15.0,68,0.00,,CLR,0.00,VWS V13.01,2013-02-21 17:50:00,
2013-02-21 09:55:00,51.0,40.8,30.11,North,9,7.0,15.0,68,0.00,,CLR,0.00,VWS V13.01,2013-02-21 17:55:00,
2013-02-21 10:01:00,51.5,40.5,30.12,North,5,7.0,15.0,66,0.00,,CLR,0.00,VWS V13.01,2013-02-21 18:01:00,
2013-02-21 10:07:00,52.0,40.6,30.12,NNW,347,10.0,13.0,65,0.00,,CLR,0.00,VWS V13.01,2013-02-21 18:07:00,
2013-02-21 10:13:00,52.5,40.7,30.12,NW,325,9.0,13.0,64,0.00,,CLR,0.00,VWS V13.01,2013-02-21 18:13:00,
2013-02-21 10:19:00,52.8,39.7,30.12,North,355,6.0,18.0,61,0.00,,CLR,0.00,VWS V13.01,2013-02-21 18:19:00,
2013-02-21 10:25:00,53.1,39.6,30.12,NNW,346,11.0,17.0,60,0.00,,CLR,0.00,VWS V13.01,2013-02-21 18:25:00,
2013-02-21 10:31:00,53.4,39.9,30.12,NNW,338,10.0,17.0,60,0.00,,CLR,0.00,VWS V13.01,2013-02-21 18:31:00,
2013-02-21 10:37:00,53.9,40.8,30.12,NNW,344,11.0,12.0,61,0.00,,CLR,0.00,VWS V13.01,2013-02-21 18:37:00,
2013-02-21 10:43:00,54.5,40.0,30.12,NW,321,9.0,14.0,58,0.00,,CLR,0.00,VWS V13.01,2013-02-21 18:43:00,
2013-02-21 10:49:00,55.1,40.2,30.11,North,355,11.0,14.0,57,0.00,,CLR,0.00,VWS V13.01,2013-02-21 18:49:00,
2013-02-21 10:55:00,55.5,38.2,30.11,North,5,11.0,20.0,52,0.00,,CLR,0.00,VWS V13.01,2013-02-21 18:55:00,
2013-02-21 11:01:00,55.6,36.8,30.11,NNE,17,10.0,20.0,49,0.00,,CLR,0.00,VWS V13.01,2013-02-21 19:01:00,
2013-02-21 11:07:00,55.9,37.0,30.10,NNW,340,11.0,16.0,49,0.00,,CLR,0.00,VWS V13.01,2013-02-21 19:07:00,
2013-02-21 11:13:00,56.0,36.1,30.10,NW,309,13.0,19.0,47,0.00,,CLR,0.00,VWS V13.01,2013-02-21 19:13:00,
2013-02-21 11:19:00,56.2,36.8,30.10,NNW,339,17.0,19.0,48,0.00,,CLR,0.00,VWS V13.01,2013-02-21 19:19:00,
2013-02-21 11:25:00,56.5,37.1,30.10,NNW,345,8.0,18.0,48,0.00,,CLR,0.00,VWS V13.01,2013-02-21 19:25:00,
2013-02-21 11:31:00,56.9,36.3,30.10,NNW,333,14.0,21.0,46,0.00,,CLR,0.00,VWS V13.01,2013-02-21 19:31:00,
2013-02-21 11:38:00,56.8,36.8,30.10,NNW,342,11.0,20.0,47,0.00,,CLR,0.00,VWS V13.01,2013-02-21 19:38:00,
2013-02-21 11:44:00,57.4,36.8,30.09,North,360,18.0,22.0,46,0.00,,CLR,0.00,VWS V13.01,2013-02-21 19:44:00,
2013-02-21 11:50:00,57.7,36.0,30.09,NNW,334,9.0,22.0,44,0.00,,CLR,0.00,VWS V13.01,2013-02-21 19:50:00,
2013-02-21 11:56:00,58.0,36.8,30.09,NW,319,10.0,19.0,45,0.00,,CLR,0.00,VWS V13.01,2013-02-21 19:56:00,
2013-02-21 12:02:00,58.3,37.1,30.09,NNW,333,12.0,23.0,45,0.00,,CLR,0.00,VWS V13.01,2013-02-21 20:02:00,
2013-02-21 12:08:00,58.8,36.4,30.09,NNW,343,14.0,23.0,43,0.00,,CLR,0.00,VWS V13.01,2013-02-21 20:08:00,
2013-02-21 12:14:00,59.1,36.7,30.09,NNW,344,13.0,23.0,43,0.00,,CLR,0.00,VWS V13.01,2013-02-21 20:14:00,
2013-02-21 12:20:00,59.6,37.1,30.08,NNW,333,10.0,23.0,43,0.00,,CLR,0.00,VWS V13.01,2013-02-21 20:20:00,
2013-02-21 12:26:00,60.2,35.8,30.08,NNW,345,10.0,18.0,40,0.00,,CLR,0.00,VWS V13.01,2013-02-21 20:26:00,
2013-02-21 12:32:00,60.7,37.5,30.07,NNW,332,17.0,20.0,42,0.00,,CLR,0.00,VWS V13.01,2013-02-21 20:32:00,
2013-02-21 12:38:00,61.1,36.0,30.07,NNW,334,9.0,17.0,39,0.00,,CLR,0.00,VWS V13.01,2013-02-21 20:38:00,
2013-02-21 12:44:00,61.4,34.9,30.07,NNW,338,18.0,23.0,37,0.00,,CLR,0.00,VWS V13.01,2013-02-21 20:44:00,
2013-02-21 12:50:00,61.6,34.4,30.07,NNW,338,13.0,23.0,36,0.00,,CLR,0.00,VWS V13.01,2013-02-21 20:50:00,
2013-02-21 12:56:00,61.8,33.2,30.07,NNW,346,11.0,23.0,34,0.00,,CLR,0.00,VWS V13.01,2013-02-21 20:56:00,
2013-02-21 13:02:00,62.2,34.9,30.06,North,5,9.0,23.0,36,0.00,,CLR,0.00,VWS V13.01,2013-02-21 21:02:00,
2013-02-21 13:08:00,62.6,33.9,30.06,NNW,336,13.0,18.0,34,0.00,,CLR,0.00,VWS V13.01,2013-02-21 21:08:00,
2013-02-21 13:14:00,62.7,34.0,30.06,NNW,344,14.0,19.0,34,0.00,,CLR,0.00,VWS V13.01,2013-02-21 21:14:00,
2013-02-21 13:20:00,62.9,33.4,30.06,North,355,13.0,19.0,33,0.00,,CLR,0.00,VWS V13.01,2013-02-21 21:20:00,
2013-02-21 13:25:00,62.7,33.2,30.06,NNW,336,17.0,20.0,33,0.00,,CLR,0.00,VWS V13.01,2013-02-21 21:25:00,
2013-02-21 13:31:00,62.8,34.0,30.06,NW,317,12.0,20.0,34,0.00,,CLR,0.00,VWS V13.01,2013-02-21 21:31:00,
2013-02-21 13:37:00,62.8,33.3,30.06,NNW,339,12.0,16.0,33,0.00,,CLR,0.00,VWS V13.01,2013-02-21 21:37:00,
2013-02-21 13:43:00,62.9,31.0,30.06,NNW,344,9.0,19.0,30,0.00,,CLR,0.00,VWS V13.01,2013-02-21 21:43:00,
2013-02-21 13:49:00,63.3,33.0,30.06,NNW,342,10.0,20.0,32,0.00,,CLR,0.00,VWS V13.01,2013-02-21 21:49:00,
2013-02-21 13:55:00,63.8,31.0,30.05,NNW,346,6.0,17.0,29,0.00,,CLR,0.00,VWS V13.01,2013-02-21 21:55:00,
2013-02-21 14:01:00,64.3,31.4,30.05,NNW,346,15.0,19.0,29,0.00,,CLR,0.00,VWS V13.01,2013-02-21 22:01:00,
2013-02-21 14:07:00,64.5,32.4,30.06,NNW,336,8.0,17.0,30,0.00,,CLR,0.00,VWS V13.01,2013-02-21 22:07:00,
2013-02-21 14:13:00,64.7,30.0,30.05,NNW,336,13.0,17.0,27,0.00,,CLR,0.00,VWS V13.01,2013-02-21 22:13:00,
2013-02-21 14:19:00,64.7,31.7,30.05,NNW,337,9.0,18.0,29,0.00,,CLR,0.00,VWS V13.01,2013-02-21 22:19:00,
2013-02-21 14:25:00,64.7,30.9,30.05,North,360,15.0,19.0,28,0.00,,CLR,0.00,VWS V13.01,2013-02-21 22:25:00,
2013-02-21 14:31:00,64.8,31.8,30.05,North,5,12.0,21.0,29,0.00,,CLR,0.00,VWS V13.01,2013-02-21 22:31:00,
2013-02-21 14:37:00,64.7,32.6,30.05,North,349,13.0,20.0,30,0.00,,CLR,0.00,VWS V13.01,2013-02-21 22:37:00,
2013-02-21 14:43:00,64.4,32.3,30.05,North,5,10.0,21.0,30,0.00,,CLR,0.00,VWS V13.01,2013-02-21 22:43:00,
2013-02-21 14:49:00,64.3,32.2,30.05,North,360,12.0,21.0,30,0.00,,CLR,0.00,VWS V13.01,2013-02-21 22:49:00,
2013-02-21 14:56:00,64.3,32.2,30.05,NNW,348,9.0,17.0,30,0.00,,CLR,0.00,VWS V13.01,2013-02-21 22:56:00,
2013-02-21 15:02:00,64.4,33.1,30.05,NNW,346,15.0,20.0,31,0.00,,CLR,0.00,VWS V13.01,2013-02-21 23:02:00,
2013-02-21 15:08:00,64.1,31.2,30.04,NNW,340,8.0,21.0,29,0.00,,CLR,0.00,VWS V13.01,2013-02-21 23:08:00,
2013-02-21 15:14:00,63.5,30.7,30.04,NNW,340,8.0,21.0,29,0.00,,CLR,0.00,VWS V13.01,2013-02-21 23:14:00,
2013-02-21 15:20:00,63.2,31.3,30.04,NNW,340,10.0,21.0,30,0.00,,CLR,0.00,VWS V13.01,2013-02-21 23:20:00,
2013-02-21 15:26:00,63.0,29.4,30.04,NNW,335,12.0,18.0,28,0.00,,CLR,0.00,VWS V13.01,2013-02-21 23:26:00,
2013-02-21 15:32:00,63.0,29.4,30.04,North,350,9.0,19.0,28,0.00,,CLR,0.00,VWS V13.01,2013-02-21 23:32:00,
2013-02-21 15:38:00,63.1,28.6,30.04,North,355,11.0,14.0,27,0.00,,CLR,0.00,VWS V13.01,2013-02-21 23:38:00,
2013-02-21 15:44:00,63.0,28.5,30.04,NNW,346,9.0,17.0,27,0.00,,CLR,0.00,VWS V13.01,2013-02-21 23:44:00,
2013-02-21 15:50:00,62.8,28.4,30.03,North,355,9.0,17.0,27,0.00,,CLR,0.00,VWS V13.01,2013-02-21 23:50:00,
2013-02-21 15:55:00,62.5,29.0,30.04,NW,326,12.0,15.0,28,0.00,,CLR,0.00,VWS V13.01,2013-02-21 23:55:00,
2013-02-21 16:01:00,62.2,29.6,30.04,NNW,327,7.0,15.0,29,0.00,,CLR,0.00,VWS V13.01,2013-02-22 00:01:00,
2013-02-21 16:07:00,62.0,29.4,30.04,NNW,329,12.0,12.0,29,0.00,,CLR,0.00,VWS V13.01,2013-02-22 00:07:00,
2013-02-21 16:13:00,61.9,29.3,30.04,NNW,334,8.0,12.0,29,0.00,,CLR,0.00,VWS V13.01,2013-02-22 00:13:00,
2013-02-21 16:19:00,61.7,29.1,30.04,NNE,18,4.0,12.0,29,0.00,,CLR,0.00,VWS V13.01,2013-02-22 00:19:00,
2013-02-21 16:25:00,61.5,29.8,30.04,NNW,342,8.0,13.0,30,0.00,,CLR,0.00,VWS V13.01,2013-02-22 00:25:00,
2013-02-21 16:31:00,61.3,29.6,30.04,North,5,9.0,15.0,30,0.00,,CLR,0.00,VWS V13.01,2013-02-22 00:31:00,
2013-02-21 16:37:00,61.1,29.5,30.04,NNW,337,12.0,13.0,30,0.00,,CLR,0.00,VWS V13.01,2013-02-22 00:37:00,
2013-02-21 16:43:00,60.9,30.1,30.04,NNW,339,5.0,13.0,31,0.00,,CLR,0.00,VWS V13.01,2013-02-22 00:43:00,
2013-02-21 16:49:00,60.7,29.9,30.04,NNW,340,11.0,14.0,31,0.00,,CLR,0.00,VWS V13.01,2013-02-22 00:49:00,
2013-02-21 16:57:00,60.5,29.7,30.04,North,355,5.0,11.0,31,0.00,,CLR,0.00,VWS V13.01,2013-02-22 00:57:00,
2013-02-21 17:02:00,60.2,30.2,30.04,NNW,344,8.0,12.0,32,0.00,,CLR,0.00,VWS V13.01,2013-02-22 01:02:00,
2013-02-21 17:08:00,60.0,31.6,30.04,NNW,342,7.0,9.0,34,0.00,,CLR,0.00,VWS V13.01,2013-02-22 01:08:00,
2013-02-21 17:14:00,59.6,30.5,30.04,North,10,3.0,11.0,33,0.00,,CLR,0.00,VWS V13.01,2013-02-22 01:14:00,
2013-02-21 17:19:00,59.3,31.0,30.04,NNW,344,5.0,11.0,34,0.00,,CLR,0.00,VWS V13.01,2013-02-22 01:19:00,
2013-02-21 17:25:00,59.0,31.4,30.05,NNW,346,10.0,10.0,35,0.00,,CLR,0.00,VWS V13.01,2013-02-22 01:25:00,
2013-02-21 17:30:00,58.7,31.8,30.04,NNW,342,7.0,10.0,36,0.00,,CLR,0.00,VWS V13.01,2013-02-22 01:30:00,
2013-02-21 17:36:00,58.3,32.2,30.04,NNW,336,9.0,10.0,37,0.00,,CLR,0.00,VWS V13.01,2013-02-22 01:36:00,
2013-02-21 17:42:00,57.8,32.4,30.04,NNW,341,5.0,12.0,38,0.00,,CLR,0.00,VWS V13.01,2013-02-22 01:42:00,
2013-02-21 17:48:00,57.3,31.9,30.04,NNW,341,7.0,12.0,38,0.00,,CLR,0.00,VWS V13.01,2013-02-22 01:48:00,
2013-02-21 17:54:00,56.8,32.1,30.04,NNW,341,6.0,9.0,39,0.00,,CLR,0.00,VWS V13.01,2013-02-22 01:54:00,
2013-02-21 18:00:00,56.2,32.2,30.04,NNW,340,7.0,9.0,40,0.00,,CLR,0.00,VWS V13.01,2013-02-22 02:00:00,
2013-02-21 18:06:00,55.6,32.3,30.04,NNW,341,4.0,8.0,41,0.00,,CLR,0.00,VWS V13.01,2013-02-22 02:06:00,
2013-02-21 18:12:00,55.0,31.8,30.05,NNW,341,6.0,8.0,41,0.00,,CLR,0.00,VWS V13.01,2013-02-22 02:12:00,
2013-02-21 18:18:00,54.6,32.0,30.05,NNW,341,5.0,8.0,42,0.00,,CLR,0.00,VWS V13.01,2013-02-22 02:18:00,
2013-02-21 18:24:00,54.1,32.7,30.05,NNW,341,0.0,4.0,44,0.00,,CLR,0.00,VWS V13.01,2013-02-22 02:24:00,
2013-02-21 18:31:00,53.7,32.3,30.06,NNW,341,0.0,4.0,44,0.00,,CLR,0.00,VWS V13.01,2013-02-22 02:31:00,
2013-02-21 18:37:00,53.2,33.0,30.06,NNW,341,0.0,0.0,46,0.00,,CLR,0.00,VWS V13.01,2013-02-22 02:37:00,
2013-02-21 18:43:00,52.5,32.3,30.07,NNW,341,0.0,0.0,46,0.00,,CLR,0.00,VWS V13.01,2013-02-22 02:43:00,
2013-02-21 18:49:00,51.8,32.2,30.07,NNW,341,0.0,0.0,47,0.00,,CLR,0.00,VWS V13.01,2013-02-22 02:49:00,
2013-02-21 18:55:00,51.0,32.0,30.07,NNW,341,0.0,0.0,48,0.00,,CLR,0.00,VWS V13.01,2013-02-22 02:55:00,
2013-02-21 19:01:00,50.4,31.5,30.07,NNW,341,0.0,0.0,48,0.00,,CLR,0.00,VWS V13.01,2013-02-22 03:01:00,
2013-02-21 19:07:00,49.8,31.4,30.07,NNW,341,0.0,0.0,49,0.00,,CLR,0.00,VWS V13.01,2013-02-22 03:07:00,
2013-02-21 19:13:00,49.2,30.9,30.07,NNW,341,0.0,0.0,49,0.00,,CLR,0.00,VWS V13.01,2013-02-22 03:13:00,
2013-02-21 19:19:00,48.8,30.5,30.06,NNW,341,0.0,0.0,49,0.00,,CLR,0.00,VWS V13.01,2013-02-22 03:19:00,
2013-02-21 19:25:00,48.4,30.6,30.06,NNW,341,0.0,0.0,50,0.00,,CLR,0.00,VWS V13.01,2013-02-22 03:25:00,
2013-02-21 19:32:00,48.0,30.3,30.07,NNW,341,0.0,0.0,50,0.00,,CLR,0.00,VWS V13.01,2013-02-22 03:32:00,
2013-02-21 19:38:00,47.7,30.0,30.07,NNW,341,0.0,0.0,50,0.00,,CLR,0.00,VWS V13.01,2013-02-22 03:38:00,
2013-02-21 19:44:00,47.5,30.8,30.07,NNW,341,0.0,0.0,52,0.00,,CLR,0.00,VWS V13.01,2013-02-22 03:44:00,
2013-02-21 19:50:00,47.2,31.4,30.07,NNW,341,0.0,0.0,54,0.00,,CLR,0.00,VWS V13.01,2013-02-22 03:50:00,
2013-02-21 19:56:00,46.9,32.0,30.07,NNW,341,1.0,4.0,56,0.00,,CLR,0.00,VWS V13.01,2013-02-22 03:56:00,
2013-02-21 20:02:00,46.5,32.1,30.06,NNW,341,0.0,4.0,57,0.00,,CLR,0.00,VWS V13.01,2013-02-22 04:02:00,
2013-02-21 20:08:00,46.0,32.1,30.06,NNW,341,0.0,0.0,58,0.00,,CLR,0.00,VWS V13.01,2013-02-22 04:08:00,
2013-02-21 20:14:00,45.7,31.8,30.07,NNW,341,0.0,0.0,58,0.00,,CLR,0.00,VWS V13.01,2013-02-22 04:14:00,
2013-02-21 20:20:00,45.4,31.9,30.07,NNW,341,0.0,0.0,59,0.00,,CLR,0.00,VWS V13.01,2013-02-22 04:20:00,
2013-02-21 20:25:00,45.1,31.6,30.07,NNW,341,0.0,0.0,59,0.00,,CLR,0.00,VWS V13.01,2013-02-22 04:25:00,
2013-02-21 20:31:00,44.8,31.8,30.07,NNW,341,4.0,4.0,60,0.00,,CLR,0.00,VWS V13.01,2013-02-22 04:31:00,
2013-02-21 20:37:00,44.3,31.3,30.07,NNW,341,0.0,0.0,60,0.00,,CLR,0.00,VWS V13.01,2013-02-22 04:37:00,
2013-02-21 20:43:00,44.0,31.4,30.07,NNW,341,0.0,0.0,61,0.00,,CLR,0.00,VWS V13.01,2013-02-22 04:43:00,
2013-02-21 20:50:00,43.7,32.0,30.07,NNW,341,0.0,2.0,63,0.00,,CLR,0.00,VWS V13.01,2013-02-22 04:50:00,
2013-02-21 20:56:00,43.4,31.7,30.07,NNW,341,0.0,1.0,63,0.00,,CLR,0.00,VWS V13.01,2013-02-22 04:56:00,
2013-02-21 21:00:00,43.1,31.8,30.08,NNW,341,0.0,1.0,64,0.00,,CLR,0.00,VWS V13.01,2013-02-22 05:00:00,
2013-02-21 21:02:00,42.9,31.6,30.08,NNW,341,1.0,4.0,64,0.00,,CLR,0.00,VWS V13.01,2013-02-22 05:02:00,
2013-02-21 21:03:00,42.9,31.6,30.08,NNW,341,1.0,4.0,64,0.00,,CLR,0.00,VWS V13.01,2013-02-22 05:03:00,
2013-02-21 21:08:00,42.5,30.8,30.08,NNW,341,0.0,0.0,63,0.00,,CLR,0.00,VWS V13.01,2013-02-22 05:08:00,
2013-02-21 21:14:00,42.3,30.6,30.08,NNW,341,0.0,0.0,63,0.00,,CLR,0.00,VWS V13.01,2013-02-22 05:14:00,
2013-02-21 21:20:00,42.2,30.1,30.08,NNW,341,0.0,0.0,62,0.00,,CLR,0.00,VWS V13.01,2013-02-22 05:20:00,
2013-02-21 21:26:00,42.1,30.4,30.08,NNW,341,0.0,0.0,63,0.00,,CLR,0.00,VWS V13.01,2013-02-22 05:26:00,
2013-02-21 21:32:00,42.2,30.5,30.08,NNW,341,0.0,0.0,63,0.00,,CLR,0.00,VWS V13.01,2013-02-22 05:32:00,
2013-02-21 21:38:00,42.1,30.4,30.08,NNW,341,0.0,0.0,63,0.00,,CLR,0.00,VWS V13.01,2013-02-22 05:38:00,
2013-02-21 21:44:00,42.0,30.3,30.08,NNW,341,0.0,0.0,63,0.00,,CLR,0.00,VWS V13.01,2013-02-22 05:44:00,
2013-02-21 21:50:00,42.1,30.4,30.09,NNW,341,0.0,0.0,63,0.00,,CLR,0.00,VWS V13.01,2013-02-22 05:50:00,
2013-02-21 21:55:00,42.1,30.4,30.08,NNW,341,0.0,0.0,63,0.00,,CLR,0.00,VWS V13.01,2013-02-22 05:55:00,
2013-02-21 22:01:00,42.1,30.4,30.09,NNW,341,0.0,0.0,63,0.00,,CLR,0.00,VWS V13.01,2013-02-22 06:01:00,
2013-02-21 22:07:00,42.1,30.4,30.09,NNW,341,0.0,0.0,63,0.00,,CLR,0.00,VWS V13.01,2013-02-22 06:07:00,
2013-02-21 22:13:00,42.1,30.4,30.09,NNW,341,0.0,0.0,63,0.00,,CLR,0.00,VWS V13.01,2013-02-22 06:13:00,
2013-02-21 22:21:00,42.0,30.7,30.09,NNW,341,0.0,0.0,64,0.00,,CLR,0.00,VWS V13.01,2013-02-22 06:21:00,
2013-02-21 22:27:00,42.0,30.3,30.09,NNW,341,0.0,0.0,63,0.00,,CLR,0.00,VWS V13.01,2013-02-22 06:27:00,
2013-02-21 22:32:00,42.0,30.3,30.09,NNW,341,0.0,0.0,63,0.00,,CLR,0.00,VWS V13.01,2013-02-22 06:32:00,
2013-02-21 22:38:00,42.0,30.3,30.09,NNW,341,0.0,0.0,63,0.00,,CLR,0.00,VWS V13.01,2013-02-22 06:38:00,
2013-02-21 22:44:00,42.0,30.3,30.09,NNW,341,0.0,0.0,63,0.00,,CLR,0.00,VWS V13.01,2013-02-22 06:44:00,
2013-02-21 22:50:00,41.9,31.4,30.09,NNW,341,0.0,0.0,66,0.00,,CLR,0.00,VWS V13.01,2013-02-22 06:50:00,
2013-02-21 22:55:00,41.9,31.8,30.09,NNW,341,0.0,0.0,67,0.00,,CLR,0.00,VWS V13.01,2013-02-22 06:55:00,
2013-02-21 23:01:00,41.7,31.9,30.09,NNW,341,0.0,0.0,68,0.00,,CLR,0.00,VWS V13.01,2013-02-22 07:01:00,
2013-02-21 23:07:00,41.4,31.6,30.10,NNW,341,0.0,0.0,68,0.00,,CLR,0.00,VWS V13.01,2013-02-22 07:07:00,
2013-02-21 23:15:00,41.3,32.3,30.10,NNW,338,1.0,5.0,70,0.00,,CLR,0.00,VWS V13.01,2013-02-22 07:15:00,
2013-02-21 23:30:00,41.5,30.6,30.11,NE,45,1.0,4.0,65,0.00,,CLR,0.00,VWS V13.01,2013-02-22 07:30:00,
2013-02-21 23:45:00,41.5,31.4,30.11,NE,45,0.0,0.0,67,0.00,,CLR,0.00,VWS V13.01,2013-02-22 07:45:00,